sat.trackr.live / text

‹ back to catalog

STARLINK-36320

NORAD 68090 · 2026-042X

PAYLOAD ACTIVE UNKNOWN

§ Identity

Operator
Country
US
Launch date
2026-03-04
Launch site
AFETR
Launch vehicle
Mass (kg)
RCS (m²)

Purposes: comms

External: N2YO · Heavens-Above · Gunter

§ Orbital elements

Epoch: 2026-09-19T06:20:32.846784Z

Period
93.85 min
Inclination
53.1614°
Eccentricity
0.0000937
Mean motion
15.34408236 rev/d
Perigee alt
462.0 km
Apogee alt
463.3 km
Semi-major
6,840.8 km
B*
3.6241e-4
RAAN
355.2345°
Arg perigee
68.5181°
Mean anomaly
291.5922°
Rev number
3,200

§ Raw data

STARLINK-363201 68090U 26042X   26262.26426906  .00011891  00000+0  36241-3 0  99982 68090  53.1614 355.2345 0000937  68.5181 291.5922 15.34408236 32001

JSON: /api/v1/satellites/68090 · /tle

For live sub-satellite position, see the globe view (requires WebGL).

§ Visibility from observer

Set your observer location to see the next 7 days of passes ≥ 10°. The values pass through the URL so the page stays shareable.

No JS? Fill the form by hand. The geolocation button needs JavaScript.